Flag for U.S.A. Weather past 2 weeks in Leawood, Kansas, U.S.A.

32 °F

Low clouds.

Feels Like: 25 °F
Forecast: 34 / 36 °F
Wind: 8 mph from Northeast

Location: Johnson County Executive Airport

Current Time: Nov 29, 2015 at 6:50:01 AM

Latest Report: Nov 29, 2015 at 5:53 AM

Visibility: 7 mi

Pressure: 30.31 "Hg

Humidity: 96%

Dew point: 31 °F

Location of LeawoodLocation

Historic Weather in Leawood — Graph


Leawood temperature yesterday

Maximum temperature yesterday: 32 °F (at 12:53 PM)
Minimum temperature yesterday: 30 °F (at 12:53 AM)
Average temperature yesterday: 31 °F

Past Weeks' High & Low Weather Summary

High66 °F (Nov 14, 1:53 PM)100% (Nov 17, 9:53 AM)30.43 "Hg (Nov 17, 9:53 AM)
Low25 °F (Nov 21, 9:53 PM)23% (Nov 14, 1:53 PM)29.34 "Hg (Nov 18, 4:53 AM)
Average45 °F71%30.06 "Hg
* Reported Nov 14 4:53 AM — Nov 29 4:53 AM, Leawood, Weather by CustomWeather, © 2015

Note: Actual official high and low records may vary slightly from our data, if they occured in-between our weather recording intervals... More about our weather records


Leawood weather history for previous 24 hours

Time TempWeatherWind HumidityBarometerVisibility
4:53 AM
Sun, Nov 29
32 °FIce fog.10 mph96%30.29 "Hg6 mi
3:53 AM32 °FIce fog.9 mph96%30.30 "Hg6 mi
2:53 AM32 °FLow clouds.10 mph96%30.30 "Hg7 mi
1:53 AM32 °FLow clouds.9 mph96%30.31 "Hg7 mi
12:53 AM32 °FLow clouds.8 mph96%30.33 "Hg7 mi
11:53 PM
Sat, Nov 28
32 °FLow clouds.12 mph96%30.34 "Hg7 mi
10:53 PM32 °FLow clouds.8 mph96%30.35 "Hg7 mi
9:53 PM32 °FIce fog.10 mph96%30.33 "Hg6 mi
8:53 PM32 °FLow clouds.9 mph96%30.34 "Hg7 mi
7:53 PM32 °FLow clouds.8 mph96%30.34 "Hg8 mi
6:53 PM32 °FLow clouds.6 mph96%30.33 "Hg7 mi
4:53 PM32 °FLow clouds.10 mph96%30.33 "Hg7 mi
3:53 PM32 °FLight snow. Ice fog.8 mph96%30.33 "Hg4 mi
2:53 PM32 °FLight snow. Ice fog.9 mph96%30.33 "Hg5 mi
1:53 PM32 °FIce fog.13 mph92%30.32 "Hg6 mi
12:53 PM32 °FLow clouds.12 mph92%30.37 "Hg7 mi
11:53 AM31 °FLow clouds.9 mph96%30.39 "Hg7 mi
10:53 AM31 °FLow clouds.9 mph92%30.39 "Hg7 mi
9:53 AM30 °FIce fog.10 mph96%30.39 "Hg6 mi
8:53 AM30 °FIce fog.10 mph96%30.38 "Hg5 mi
7:53 AM30 °FLow clouds.14 mph96%30.39 "Hg10 mi
7:04 AM31 °FLow clouds.9 mph92%30.35 "Hg10 mi
6:53 AM31 °FLight freezing rain. Low clouds.8 mph96%30.38 "Hg9 mi
Weather by CustomWeather, © 2015

See weather overviewHow to use our weather pages